Weather History for Valdosta, GA

Change the Weather History Date:

Tuesday, February 12, 2013

  Actual Average Record
Temperature  
Mean Temperature 65 °F -  
Max Temperature 71 °F 64 °F 75 °F (1999)
Min Temperature 59 °F 44 °F 22 °F (2012)
Growing Degree Days 15 (Base 50)    
Moisture  
Dew Point 62 °F    
Average Humidity 98    
Maximum Humidity 100    
Minimum Humidity 88    
Precipitation  
Precipitation 0.66 in - - ()
Sea Level Pressure  
Sea Level Pressure 29.97 in    
Wind  
Wind Speed 8 mph (ENE)    
Max Wind Speed 23 mph    
Max Gust Speed 33 mph    
Visibility 8 miles    
Events Rain    
Averages and records for this station are not official NWS values.
T = Trace of Precipitation, MM = Missing Value Source: NWS Daily Summary

Daily Weather History Graph

Daily Weather History Graph

Search for Another Location

Airport:

Trip Planner

Search our weather history database for the weather conditions in past years. The results will help you decide how hot, cold, wet, or windy it might be!

Date:

Astronomy

Feb. 12, 2013 Rise Set
Actual Time 7:16 AM EST 6:18 PM EST
Civil Twilight 6:51 AM EST 6:43 PM EST
Nautical Twilight 6:22 AM EST 7:11 PM EST
Astronomical Twilight 5:54 AM EST 7:39 PM EST
Moon 8:26 AM EST (2/12) 9:01 PM EST (2/12)
Length of Visible Light 11h 51m
Length of Day
11h 02m
Waxing Crescent, 7% of the Moon is Illuminated
Feb 12
Waxing Crescent
Feb 17
First Quarter
Feb 25
Full
Mar 4
Last Quarter
Mar 11
New

Hourly Weather History & Observations

Time (EST) Temp. Dew Point Humidity Pressure Visibility Wind Dir Wind Speed Gust Speed Precip Events Conditions
12:08 AM 62.6 °F 60.8 °F 94% 30.09 in 5.0 mi NNE 8.1 mph - N/A Rain Light Rain
12:14 AM 60.8 °F 60.8 °F 100% 30.09 in 7.0 mi North 11.5 mph - N/A Rain Light Rain
12:40 AM 60.8 °F 60.8 °F 100% 30.09 in 4.0 mi North 8.1 mph - N/A Rain Light Rain
12:48 AM 60.8 °F 59.0 °F 94% 30.09 in 5.0 mi Variable 4.6 mph - N/A Rain Light Rain
12:58 AM 59.9 °F 59.7 °F 99% 30.11 in 10.0 mi North 9.2 mph - 0.30 in Rain Light Rain
1:08 AM 60.8 °F 59.0 °F 94% 30.09 in 10.0 mi North 10.4 mph - N/A Rain Light Rain
1:20 AM 59.0 °F 59.0 °F 100% 30.08 in 10.0 mi ENE 9.2 mph - N/A Rain Light Rain
1:22 AM 59.0 °F 59.0 °F 100% 30.08 in 9.0 mi NE 9.2 mph - N/A Rain Light Rain
1:24 AM 59.0 °F 59.0 °F 100% 30.08 in 8.0 mi NE 9.2 mph - N/A Rain Light Rain
1:34 AM 59.0 °F 59.0 °F 100% 30.08 in 10.0 mi ENE 6.9 mph - N/A Rain Light Rain
1:37 AM 59.0 °F 59.0 °F 100% 30.08 in 10.0 mi Variable 5.8 mph - N/A   Overcast
1:51 AM 59.0 °F 59.0 °F 100% 30.06 in 10.0 mi ENE 9.2 mph - N/A Rain Light Rain
1:58 AM 59.9 °F 59.5 °F 99% 30.06 in 10.0 mi ENE 9.2 mph - 0.02 in Rain Light Rain
2:15 AM 59.0 °F 59.0 °F 100% 30.06 in 10.0 mi East 8.1 mph - N/A   Overcast
2:51 AM 60.8 °F 59.0 °F 94% 30.05 in 10.0 mi East 4.6 mph - N/A   Overcast
3:48 AM 60.8 °F 59.0 °F 94% 30.05 in 10.0 mi North 6.9 mph - N/A Rain Light Rain
3:58 AM 60.1 °F 59.7 °F 99% 30.06 in 10.0 mi NNE 4.6 mph - 0.00 in Rain Light Rain
4:02 AM 60.8 °F 59.0 °F 94% 30.05 in 9.0 mi NNE 4.6 mph - N/A Rain Light Rain
4:15 AM 59.0 °F 59.0 °F 100% 30.05 in 6.0 mi ENE 5.8 mph - N/A Rain Rain
4:19 AM 59.0 °F 59.0 °F 100% 30.04 in 5.0 mi ENE 3.5 mph - N/A Rain Rain
4:21 AM 59.0 °F 59.0 °F 100% 30.04 in 4.0 mi ENE 4.6 mph - N/A Rain Light Rain
4:31 AM 59.0 °F 59.0 °F 100% 30.04 in 6.0 mi ENE 5.8 mph - N/A Rain Light Rain
4:38 AM 59.0 °F 59.0 °F 100% 30.03 in 9.0 mi ENE 2.3 mph - N/A Rain Light Rain
4:47 AM 59.0 °F 59.0 °F 100% 30.04 in 10.0 mi NNE 5.8 mph - N/A Rain Light Rain
4:58 AM 59.5 °F 59.2 °F 99% 30.05 in 10.0 mi Variable 1.2 mph - 0.09 in Rain Light Rain
4:59 AM 59.0 °F 59.0 °F 100% 30.04 in 10.0 mi Calm Calm - N/A   Overcast
5:06 AM 59.0 °F 59.0 °F 100% 30.03 in 10.0 mi East 4.6 mph - N/A Rain Light Rain
5:08 AM 59.0 °F 59.0 °F 100% 30.03 in 10.0 mi ENE 6.9 mph - N/A Rain Light Rain
5:17 AM 59.0 °F 59.0 °F 100% 30.04 in 10.0 mi SW 4.6 mph - N/A Rain Light Rain
5:18 AM 59.0 °F 59.0 °F 100% 30.04 in 10.0 mi Variable 3.5 mph - N/A   Overcast
5:34 AM 59.0 °F 59.0 °F 100% 30.04 in 10.0 mi Variable 2.3 mph - N/A Rain Light Rain
5:50 AM 59.0 °F 59.0 °F 100% 30.03 in 9.0 mi ENE 8.1 mph - N/A Rain Light Rain
5:58 AM 59.7 °F 59.4 °F 99% 30.04 in 9.0 mi ENE 5.8 mph - 0.02 in Rain Light Rain
6:00 AM 59.0 °F 59.0 °F 100% 30.03 in 10.0 mi East 4.6 mph - N/A Rain Light Rain
6:26 AM 59.0 °F 59.0 °F 100% 30.04 in 10.0 mi NE 3.5 mph - N/A Rain Light Rain
6:32 AM 59.0 °F 59.0 °F 100% 30.04 in 9.0 mi NE 3.5 mph - N/A Rain Light Rain
6:40 AM 59.0 °F 59.0 °F 100% 30.04 in 7.0 mi NNE 2.3 mph - N/A Rain Light Rain
6:52 AM 59.0 °F 59.0 °F 100% 30.04 in 6.0 mi NE 5.8 mph - N/A Rain Light Rain
6:54 AM 59.0 °F 59.0 °F 100% 30.04 in 6.0 mi NE 3.5 mph - N/A Rain Light Rain
6:56 AM 59.0 °F 59.0 °F 100% 30.05 in 5.0 mi Variable 1.2 mph - N/A Rain Light Rain
6:58 AM 59.5 °F 59.2 °F 99% 30.06 in 5.0 mi Calm Calm - 0.06 in Rain Light Rain
7:06 AM 59.0 °F 59.0 °F 100% 30.05 in 5.0 mi NE 5.8 mph - N/A Rain Light Rain
7:10 AM 59.0 °F 59.0 °F 100% 30.05 in 8.0 mi East 6.9 mph - N/A Rain Light Rain
7:12 AM 59.0 °F 59.0 °F 100% 30.05 in 10.0 mi Variable 3.5 mph - N/A Rain Light Rain
7:18 AM 59.0 °F 59.0 °F 100% 30.05 in 9.0 mi ENE 5.8 mph - N/A Rain Light Rain
7:22 AM 59.0 °F 59.0 °F 100% 30.04 in 6.0 mi NE 10.4 mph - N/A Rain Light Rain
7:32 AM 59.0 °F 59.0 °F 100% 30.05 in 6.0 mi ESE 5.8 mph - N/A Rain Light Rain
7:40 AM 60.8 °F 59.0 °F 94% 30.06 in 3.0 mi North 3.5 mph - N/A Rain Light Rain
7:58 AM 60.1 °F 59.7 °F 99% 30.07 in 5.0 mi North 4.6 mph - 0.04 in Rain Light Rain
8:02 AM 59.0 °F 59.0 °F 100% 30.07 in 2.5 mi North 5.8 mph - N/A Rain Light Rain
8:06 AM 59.0 °F 59.0 °F 100% 30.07 in 3.0 mi North 4.6 mph - N/A Rain Light Rain
8:22 AM 60.8 °F 60.8 °F 100% 30.07 in 8.0 mi North 5.8 mph - N/A Rain Light Rain
8:39 AM 60.8 °F 60.8 °F 100% 30.07 in 10.0 mi NNE 4.6 mph - N/A   Overcast
8:45 AM 60.8 °F 60.8 °F 100% 30.07 in 10.0 mi NNE 6.9 mph - N/A   Overcast
8:51 AM 60.8 °F 60.8 °F 100% 30.07 in 10.0 mi NNE 6.9 mph - N/A   Overcast
8:58 AM 60.1 °F 60.1 °F 100% 30.09 in 10.0 mi NNE 6.9 mph - 0.04 in   Overcast
8:59 AM 60.8 °F 60.8 °F 100% 30.08 in 10.0 mi North 8.1 mph - N/A Rain Light Rain
9:08 AM 60.8 °F 60.8 °F 100% 30.08 in 10.0 mi NNE 5.8 mph - N/A   Overcast
9:58 AM 60.8 °F 60.8 °F 100% 30.08 in 10.0 mi NNE 6.9 mph - 0.00 in   Overcast
10:40 AM 60.8 °F 60.8 °F 100% 30.06 in 10.0 mi NE 9.2 mph - N/A   Overcast
10:58 AM 61.0 °F 60.8 °F 99% 30.06 in 10.0 mi NE 8.1 mph - N/A   Overcast
11:38 AM 60.8 °F 60.8 °F 100% 30.05 in 10.0 mi NE 8.1 mph - N/A   Overcast
11:39 AM 60.8 °F 60.8 °F 100% 30.05 in 9.0 mi NE 6.9 mph - N/A Rain Light Rain
11:49 AM 60.8 °F 60.8 °F 100% 30.05 in 2.5 mi NNE 6.9 mph - N/A Rain Light Rain
11:51 AM 60.8 °F 60.8 °F 100% 30.05 in 3.0 mi NE 6.9 mph - N/A Rain Light Rain
11:58 AM 60.8 °F 60.4 °F 99% 30.06 in 4.0 mi NE 8.1 mph - 0.02 in Rain Light Rain
12:48 PM 60.8 °F 60.8 °F 100% 30.02 in 2.5 mi ENE 4.6 mph - N/A Rain Light Rain
12:52 PM 60.8 °F 60.8 °F 100% 30.02 in 3.0 mi ENE 3.5 mph - N/A Rain Light Rain
12:58 PM 61.0 °F 61.0 °F 100% 30.02 in 3.0 mi ENE 3.5 mph - 0.03 in Rain Light Rain
1:14 PM 60.8 °F 60.8 °F 100% 30.01 in 9.0 mi East 4.6 mph - N/A   Overcast
1:20 PM 60.8 °F 60.8 °F 100% 30.01 in 7.0 mi ENE 3.5 mph - N/A   Overcast
1:21 PM 60.8 °F 60.8 °F 100% 30.00 in 5.0 mi East 3.5 mph - N/A Rain Light Rain
1:25 PM 60.8 °F 60.8 °F 100% 30.00 in 2.5 mi ENE 5.8 mph - N/A Rain Rain
1:35 PM 60.8 °F 60.8 °F 100% 29.99 in 4.0 mi ENE 5.8 mph - N/A Rain Light Rain
1:47 PM 60.8 °F 60.8 °F 100% 29.98 in 10.0 mi East 4.6 mph - N/A Rain Light Rain
1:50 PM 60.8 °F 60.8 °F 100% 29.98 in 10.0 mi ENE 6.9 mph - N/A   Overcast
1:58 PM 61.5 °F 61.3 °F 99% 29.98 in 10.0 mi ENE 5.8 mph - 0.03 in   Overcast
2:06 PM 62.6 °F 60.8 °F 94% 29.97 in 10.0 mi Variable 4.6 mph - N/A   Overcast
2:16 PM 62.6 °F 62.6 °F 100% 29.97 in 10.0 mi East 5.8 mph - N/A   Overcast
2:45 PM 62.6 °F 62.6 °F 100% 29.95 in 10.0 mi East 5.8 mph - N/A Rain Light Rain
2:49 PM 62.6 °F 62.6 °F 100% 29.94 in 10.0 mi East 4.6 mph - N/A Rain Light Rain
2:58 PM 62.8 °F 62.4 °F 99% 29.95 in 10.0 mi East 3.5 mph - 0.00 in Rain Light Rain
2:59 PM 62.6 °F 62.6 °F 100% 29.94 in 10.0 mi East 4.6 mph - N/A   Overcast
3:43 PM 64.4 °F 64.4 °F 100% 29.93 in 10.0 mi East 3.5 mph - N/A   Overcast
3:45 PM 64.4 °F 64.4 °F 100% 29.93 in 7.0 mi East 3.5 mph - N/A   Overcast
3:55 PM 64.4 °F 64.4 °F 100% 29.92 in 7.0 mi NE 5.8 mph - N/A   Overcast
3:58 PM 64.4 °F 64.0 °F 99% 29.93 in 10.0 mi NE 4.6 mph - 0.00 in   Overcast
4:42 PM 64.4 °F 64.4 °F 100% 29.91 in 10.0 mi East 4.6 mph - N/A   Overcast
4:48 PM 64.4 °F 64.4 °F 100% 29.91 in 10.0 mi NE 3.5 mph - N/A   Overcast
4:58 PM 64.8 °F 64.6 °F 99% 29.92 in 10.0 mi Variable 2.3 mph - N/A   Overcast
5:20 PM 64.4 °F 64.4 °F 100% 29.90 in 10.0 mi NNE 4.6 mph - N/A   Overcast
5:36 PM 64.4 °F 64.4 °F 100% 29.89 in 10.0 mi ENE 4.6 mph - N/A   Overcast
5:58 PM 64.4 °F 64.4 °F 100% 29.90 in 9.0 mi ENE 5.8 mph - N/A   Overcast
6:08 PM 64.4 °F 64.4 °F 100% 29.88 in 8.0 mi East 4.6 mph - N/A   Overcast
6:38 PM 64.4 °F 64.4 °F 100% 29.87 in 7.0 mi East 4.6 mph - N/A   Overcast
6:40 PM 64.4 °F 64.4 °F 100% 29.87 in 7.0 mi East 5.8 mph - N/A   Overcast
6:46 PM 64.4 °F 64.4 °F 100% 29.88 in 7.0 mi ESE 4.6 mph - N/A Rain Light Rain
6:50 PM 64.4 °F 64.4 °F 100% 29.87 in 7.0 mi ESE 6.9 mph - N/A Rain Light Rain
6:58 PM 64.2 °F 64.2 °F 100% 29.87 in 6.0 mi ESE 6.9 mph - 0.01 in Rain Light Rain
6:59 PM 64.4 °F 64.4 °F 100% 29.87 in 6.0 mi East 5.8 mph - N/A   Overcast
7:15 PM 64.4 °F 64.4 °F 100% 29.87 in 7.0 mi ESE 4.6 mph - N/A   Overcast
7:43 PM 64.4 °F 64.4 °F 100% 29.85 in 10.0 mi SE 8.1 mph - N/A   Overcast
7:58 PM 64.4 °F 64.4 °F 100% 29.84 in 10.0 mi ESE 11.5 mph - 0.00 in   Overcast
8:06 PM 64.4 °F 64.4 °F 100% 29.82 in 10.0 mi SE 11.5 mph - N/A   Overcast
8:24 PM 66.2 °F 66.2 °F 100% 29.81 in 10.0 mi SSE 16.1 mph - N/A   Mostly Cloudy
8:42 PM 66.2 °F 66.2 °F 100% 29.81 in 10.0 mi South 16.1 mph - N/A   Mostly Cloudy
8:44 PM 68.0 °F 68.0 °F 100% 29.81 in 10.0 mi South 15.0 mph - N/A   Mostly Cloudy
8:52 PM 68.0 °F 68.0 °F 100% 29.80 in 10.0 mi South 18.4 mph 23.0 mph N/A   Mostly Cloudy
8:58 PM 68.4 °F 68.4 °F 100% 29.82 in 10.0 mi South 23.0 mph - N/A   Mostly Cloudy
9:02 PM 69.8 °F 69.8 °F 100% 29.81 in 10.0 mi South 23.0 mph 33.4 mph N/A   Overcast
9:42 PM 71.6 °F 68.0 °F 88% 29.83 in 10.0 mi SSW 20.7 mph 27.6 mph N/A   Overcast
9:46 PM 71.6 °F 68.0 °F 88% 29.84 in 10.0 mi SSW 20.7 mph 27.6 mph N/A   Mostly Cloudy
9:50 PM 71.6 °F 68.0 °F 88% 29.84 in 10.0 mi SSW 19.6 mph 29.9 mph N/A   Mostly Cloudy
9:52 PM 71.6 °F 68.0 °F 88% 29.84 in 10.0 mi SSW 18.4 mph 29.9 mph N/A   Mostly Cloudy
9:58 PM 71.2 °F 68.2 °F 90% 29.85 in 10.0 mi SSW 20.7 mph 29.9 mph N/A   Mostly Cloudy
10:02 PM 71.6 °F 68.0 °F 88% 29.84 in 10.0 mi SSW 23.0 mph 26.5 mph N/A   Mostly Cloudy
10:04 PM 71.6 °F 68.0 °F 88% 29.84 in 10.0 mi SSW 19.6 mph 26.5 mph N/A   Mostly Cloudy
10:05 PM 71.6 °F 68.0 °F 88% 29.84 in 10.0 mi SSW 17.3 mph 26.5 mph N/A Rain Light Rain
10:07 PM 71.6 °F 68.0 °F 88% 29.83 in 10.0 mi SSW 19.6 mph 26.5 mph N/A Rain Light Rain
10:09 PM 71.6 °F 68.0 °F 88% 29.83 in 10.0 mi SSW 18.4 mph 26.5 mph N/A Rain Light Rain
10:11 PM 71.6 °F 68.0 °F 88% 29.83 in 10.0 mi SSW 18.4 mph 26.5 mph N/A Rain Light Rain
10:23 PM 69.8 °F 68.0 °F 94% 29.82 in 10.0 mi South 18.4 mph 26.5 mph N/A Rain Light Rain
10:24 PM 69.8 °F 68.0 °F 94% 29.82 in 10.0 mi South 16.1 mph 26.5 mph N/A   Mostly Cloudy
10:32 PM 69.8 °F 68.0 °F 94% 29.82 in 10.0 mi South 16.1 mph - N/A   Mostly Cloudy
10:48 PM 71.6 °F 68.0 °F 88% 29.81 in 10.0 mi South 20.7 mph 29.9 mph N/A   Mostly Cloudy
10:58 PM 70.9 °F 68.7 °F 93% 29.82 in 10.0 mi SSW 20.7 mph 26.5 mph 0.00 in   Overcast
11:19 PM 71.6 °F 69.8 °F 94% 29.82 in 10.0 mi SSW 20.7 mph 26.5 mph N/A Rain Light Rain
11:31 PM 71.6 °F 69.8 °F 94% 29.81 in 10.0 mi South 20.7 mph 29.9 mph N/A   Overcast
11:37 PM 71.6 °F 69.8 °F 94% 29.81 in 10.0 mi South 19.6 mph 29.9 mph N/A   Overcast
11:43 PM 71.6 °F 69.8 °F 94% 29.82 in 10.0 mi SSW 16.1 mph 28.8 mph N/A   Overcast
11:58 PM 71.6 °F 69.1 °F 92% 29.83 in 10.0 mi SSW 17.3 mph - 0.00 in   Overcast